Change the Weather History Date:

Tuesday, February 26, 2013

  Actual Average Record
Temperature  
Mean Temperature 28 °F 27 °F  
Max Temperature 35 °F 35 °F 50 °F (1998)
Min Temperature 21 °F 20 °F -2 °F (2003)
Degree Days  
Heating Degree Days 37    
Month to date heating degree days  
Since 1 July heating degree days  
Cooling Degree Days 0    
Month to date cooling degree days  
Year to date cooling degree days  
Moisture  
Dew Point 26 °F    
Average Humidity 80    
Maximum Humidity 92    
Minimum Humidity 70    
Precipitation  
Precipitation 0.08 in 0.07 in 0.77 in (2009)
Month to date precipitation 1.47  
Year to date precipitation 3.18  
Snow  
Snow 0.00 in - - ()
Month to date snowfall  
Since 1 July snowfall  
Snow Depth -    
Sea Level Pressure  
Sea Level Pressure 29.85 in    
Wind  
Wind Speed 14 mph (ENE)    
Max Wind Speed 24 mph    
Max Gust Speed 31 mph    
Visibility 6 miles    
Events Fog , Snow    
T = Trace of Precipitation, MM = Missing Value Source: NWS Daily Summary

Daily Weather History Graph

Daily Weather History Graph

Search for Another Location

Airport or City:

Trip Planner

Search our weather history database for the weather conditions in past years. The results will help you decide how hot, cold, wet, or windy it might be!

Date:

Astronomy

Feb. 26, 2013 Rise Set
Actual Time 7:17 AM EST 6:21 PM EST
Civil Twilight 6:48 AM EST 6:50 PM EST
Nautical Twilight 6:15 AM EST 7:23 PM EST
Astronomical Twilight 5:42 AM EST 7:56 PM EST
Moon 7:41 PM EST (2/26) 7:16 AM EST (2/26)
Length of Visible Light 12h 01m
Length of Day
11h 04m
Full, 99% of the Moon is Illuminated
Feb 26
Full
Mar 4
Last Quarter
Mar 11
New
Mar 19
First Quarter
Mar 27
Full

Hourly Weather History & Observations

Time (EST) Temp. Windchill Dew Point Humidity Pressure Visibility Wind Dir Wind Speed Gust Speed Precip Events Conditions
12:53 AM 25.0 °F 19.3 °F 19.0 °F 78% 30.17 in 10.0 mi East 4.6 mph - N/A   Clear
1:53 AM 21.9 °F 14.5 °F 16.0 °F 78% 30.16 in 10.0 mi ENE 5.8 mph - N/A   Clear
2:53 AM 21.9 °F 12.5 °F 17.1 °F 82% 30.15 in 10.0 mi NE 8.1 mph - N/A   Clear
3:53 AM 21.0 °F 10.6 °F 16.0 °F 81% 30.14 in 10.0 mi NE 9.2 mph - N/A   Clear
4:53 AM 23.0 °F 13.1 °F 18.0 °F 81% 30.11 in 10.0 mi NE 9.2 mph - N/A   Clear
5:53 AM 26.1 °F 15.0 °F 19.9 °F 78% 30.09 in 10.0 mi ENE 12.7 mph - N/A   Clear
6:53 AM 28.0 °F 17.5 °F 21.0 °F 75% 30.05 in 10.0 mi ENE 12.7 mph - N/A   Clear
7:53 AM 28.9 °F 19.2 °F 21.0 °F 72% 30.06 in 10.0 mi ENE 11.5 mph - N/A   Clear
8:53 AM 30.0 °F 19.1 °F 21.9 °F 72% 30.07 in 10.0 mi ENE 15.0 mph - N/A   Clear
9:53 AM 30.9 °F 19.4 °F 23.0 °F 72% 30.03 in 10.0 mi ENE 17.3 mph 25.3 mph N/A   Clear
10:53 AM 32.0 °F 19.8 °F 24.1 °F 73% 29.96 in 10.0 mi ENE 20.7 mph - N/A   Clear
11:53 AM 33.1 °F 21.5 °F 25.0 °F 72% 29.94 in 9.0 mi NE 19.6 mph - N/A   Clear
12:53 PM 34.0 °F 22.1 °F 25.0 °F 70% 29.89 in 8.0 mi ENE 21.9 mph 29.9 mph N/A   Clear
1:53 PM 34.0 °F 21.8 °F 25.0 °F 70% 29.84 in 9.0 mi ENE 23.0 mph 31.1 mph N/A   Clear
2:53 PM 35.1 °F 23.0 °F 27.0 °F 72% 29.79 in 10.0 mi NE 24.2 mph 31.1 mph N/A   Overcast
3:53 PM 35.1 °F 23.3 °F 27.0 °F 72% 29.77 in 10.0 mi ENE 23.0 mph 27.6 mph N/A   Overcast
4:21 PM 35.6 °F 24.0 °F 26.6 °F 70% 29.74 in 10.0 mi ENE 23.0 mph 29.9 mph N/A   Overcast
4:53 PM 35.1 °F 24.1 °F 27.0 °F 72% 29.77 in 10.0 mi ENE 19.6 mph 28.8 mph N/A   Overcast
5:38 PM 33.8 °F 23.2 °F 28.4 °F 81% 29.73 in 1.5 mi NE 17.3 mph 28.8 mph 0.00 in Snow Light Snow
5:53 PM 34.0 °F 22.4 °F 28.0 °F 79% 29.76 in 3.0 mi ENE 20.7 mph 27.6 mph 0.00 in Snow Light Snow
6:01 PM 33.8 °F 23.2 °F 28.4 °F 81% 29.74 in 2.5 mi NE 17.3 mph 27.6 mph 0.00 in Snow Light Snow
6:10 PM 33.8 °F 23.2 °F 28.4 °F 81% 29.73 in 0.5 mi NE 17.3 mph 26.5 mph 0.00 in Snow Snow
6:17 PM 33.8 °F 22.8 °F 28.4 °F 81% 29.73 in 0.5 mi NE 18.4 mph 24.2 mph 0.00 in Fog , Snow Snow
6:29 PM 33.8 °F 22.8 °F 30.2 °F 87% 29.72 in 0.5 mi NE 18.4 mph - 0.00 in Snow Light Snow
6:37 PM 33.8 °F 22.8 °F 30.2 °F 87% 29.72 in 0.5 mi NE 18.4 mph - 0.01 in Snow Light Snow
6:53 PM 33.1 °F 21.5 °F 30.0 °F 89% 29.73 in 0.8 mi NE 19.6 mph - 0.01 in Snow Light Snow
7:53 PM 33.1 °F 21.2 °F 30.9 °F 92% 29.71 in 0.8 mi ENE 20.7 mph 27.6 mph 0.01 in Snow Light Snow
8:53 PM 33.1 °F 20.6 °F 30.9 °F 92% 29.69 in 0.8 mi ENE 23.0 mph 31.1 mph 0.02 in Snow Light Snow
9:53 PM 33.1 °F 20.3 °F 30.9 °F 92% 29.67 in 0.8 mi NE 24.2 mph 31.1 mph 0.01 in Snow Light Snow
10:28 PM 33.8 °F 22.2 °F 30.2 °F 87% 29.63 in 0.8 mi NE 20.7 mph 27.6 mph 0.01 in Snow Light Snow
10:53 PM 33.1 °F 21.5 °F 30.9 °F 92% 29.64 in 1.0 mi NE 19.6 mph - 0.01 in Snow Light Snow
11:24 PM 33.8 °F 22.5 °F 30.2 °F 87% 29.60 in 0.5 mi NE 19.6 mph - 0.01 in Fog , Snow Snow
11:53 PM 33.1 °F 21.9 °F 30.9 °F 92% 29.61 in 0.8 mi NE 18.4 mph - 0.02 in Snow Light Snow